TimePDT,TemperatureF,Dew PointF,Humidity,Sea Level PressureIn,VisibilityMPH,Wind Direction,Wind SpeedMPH,Gust SpeedMPH,PrecipitationIn,Events,Conditions,WindDirDegrees,DateUTC
12:15 AM,48.2,42.8,82,30.29,10.0,WNW,3.5,-,N/A,,Clear,290,2013-08-22 07:15:00
12:35 AM,46.4,42.8,87,30.29,10.0,Calm,Calm,-,N/A,,Clear,0,2013-08-22 07:35:00
12:55 AM,48.2,42.8,82,30.29,10.0,Calm,Calm,-,N/A,,Clear,0,2013-08-22 07:55:00
1:15 AM,46.4,41.0,81,30.29,10.0,Calm,Calm,-,N/A,,Clear,0,2013-08-22 08:15:00
1:35 AM,44.6,41.0,87,30.28,10.0,North,3.5,-,N/A,,Clear,360,2013-08-22 08:35:00
1:55 AM,46.4,42.8,87,30.28,10.0,NNW,3.5,-,N/A,,Clear,330,2013-08-22 08:55:00
2:15 AM,46.4,41.0,81,30.27,10.0,North,3.5,-,N/A,,Clear,360,2013-08-22 09:15:00
2:35 AM,46.4,41.0,81,30.28,10.0,Calm,Calm,-,N/A,,Clear,0,2013-08-22 09:35:00
2:55 AM,46.4,42.8,87,30.27,10.0,Calm,Calm,-,N/A,,Clear,0,2013-08-22 09:55:00
3:15 AM,42.8,41.0,93,30.27,10.0,North,4.6,-,N/A,,Clear,360,2013-08-22 10:15:00
3:35 AM,44.6,41.0,87,30.27,10.0,NE,3.5,-,N/A,,Clear,40,2013-08-22 10:35:00
3:55 AM,42.8,41.0,93,30.26,10.0,North,4.6,-,N/A,,Clear,10,2013-08-22 10:55:00
4:15 AM,42.8,41.0,93,30.27,10.0,Calm,Calm,-,N/A,,Clear,0,2013-08-22 11:15:00
4:35 AM,42.8,41.0,93,30.26,10.0,Calm,Calm,-,N/A,,Clear,0,2013-08-22 11:35:00
4:55 AM,44.6,41.0,87,30.26,10.0,NNW,3.5,-,N/A,,Clear,330,2013-08-22 11:55:00
5:15 AM,42.8,41.0,93,30.26,10.0,Calm,Calm,-,N/A,,Clear,0,2013-08-22 12:15:00
5:35 AM,42.8,39.2,87,30.25,10.0,North,3.5,-,N/A,,Clear,350,2013-08-22 12:35:00
5:55 AM,44.6,41.0,87,30.26,10.0,East,3.5,-,N/A,,Clear,90,2013-08-22 12:55:00
6:15 AM,44.6,41.0,87,30.26,10.0,East,3.5,-,N/A,,Clear,100,2013-08-22 13:15:00
6:35 AM,44.6,42.8,93,30.27,10.0,Calm,Calm,-,N/A,,Clear,0,2013-08-22 13:35:00
6:55 AM,42.8,41.0,93,30.27,10.0,Calm,Calm,-,N/A,,Clear,0,2013-08-22 13:55:00
7:15 AM,44.6,42.8,93,30.27,10.0,Calm,Calm,-,N/A,,Clear,0,2013-08-22 14:15:00
7:35 AM,48.2,44.6,87,30.27,10.0,ESE,3.5,-,N/A,,Clear,110,2013-08-22 14:35:00
7:55 AM,50.0,46.4,87,30.27,10.0,WNW,3.5,-,N/A,,Clear,300,2013-08-22 14:55:00
8:15 AM,53.6,46.4,77,30.27,10.0,Calm,Calm,-,N/A,,Clear,0,2013-08-22 15:15:00
8:35 AM,55.4,48.2,77,30.27,10.0,ESE,4.6,-,N/A,,Clear,120,2013-08-22 15:35:00
8:55 AM,59.0,46.4,63,30.26,10.0,ENE,4.6,-,N/A,,Clear,60,2013-08-22 15:55:00
9:15 AM,62.6,44.6,52,30.25,10.0,Calm,Calm,-,N/A,,Clear,0,2013-08-22 16:15:00
9:35 AM,66.2,42.8,43,30.25,10.0,NE,3.5,-,N/A,,Clear,50,2013-08-22 16:35:00
9:55 AM,68.0,39.2,35,30.25,10.0,ENE,4.6,-,N/A,,Clear,70,2013-08-22 16:55:00
10:15 AM,68.0,41.0,37,30.25,10.0,East,4.6,-,N/A,,Clear,90,2013-08-22 17:15:00
10:35 AM,71.6,41.0,33,30.25,10.0,ESE,8.1,-,N/A,,Clear,120,2013-08-22 17:35:00
10:55 AM,71.6,37.4,29,30.25,10.0,East,6.9,-,N/A,,Clear,100,2013-08-22 17:55:00
11:15 AM,73.4,35.6,25,30.24,10.0,East,6.9,-,N/A,,Clear,100,2013-08-22 18:15:00
11:35 AM,75.2,28.4,18,30.24,10.0,NW,3.5,-,N/A,,Clear,310,2013-08-22 18:35:00
11:55 AM,75.2,26.6,17,30.24,10.0,WNW,5.8,-,N/A,,Scattered Clouds,290,2013-08-22 18:55:00
12:15 PM,77.0,24.8,14,30.23,10.0,SSE,6.9,19.6,N/A,,Scattered Clouds,160,2013-08-22 19:15:00
12:35 PM,77.0,24.8,14,30.23,10.0,WSW,17.3,26.5,N/A,,Scattered Clouds,240,2013-08-22 19:35:00
12:55 PM,77.0,24.8,14,30.23,10.0,WSW,17.3,24.2,N/A,,Clear,250,2013-08-22 19:55:00
1:15 PM,78.8,24.8,14,30.23,10.0,SW,13.8,20.7,N/A,,Clear,220,2013-08-22 20:15:00
1:35 PM,78.8,24.8,14,30.23,10.0,SW,15.0,27.6,N/A,,Scattered Clouds,220,2013-08-22 20:35:00
1:55 PM,78.8,24.8,14,30.22,10.0,South,9.2,27.6,N/A,,Clear,170,2013-08-22 20:55:00
2:15 PM,77.0,23.0,13,30.22,10.0,SW,25.3,32.2,N/A,,Scattered Clouds,230,2013-08-22 21:15:00
2:35 PM,78.8,23.0,13,30.23,10.0,SSW,15.0,31.1,N/A,,Scattered Clouds,200,2013-08-22 21:35:00
2:55 PM,78.8,23.0,13,30.21,10.0,South,10.4,25.3,N/A,,Clear,190,2013-08-22 21:55:00
3:15 PM,78.8,24.8,14,30.21,10.0,SSE,5.8,21.9,N/A,,Scattered Clouds,150,2013-08-22 22:15:00
3:35 PM,78.8,24.8,14,30.21,10.0,South,13.8,25.3,N/A,,Clear,190,2013-08-22 22:35:00
3:55 PM,77.0,23.0,13,30.20,10.0,SSW,17.3,33.4,N/A,,Clear,200,2013-08-22 22:55:00
4:15 PM,77.0,24.8,14,30.20,10.0,West,8.1,26.5,N/A,,Clear,260,2013-08-22 23:15:00
4:35 PM,77.0,23.0,13,30.20,10.0,WSW,15.0,23.0,N/A,,Clear,250,2013-08-22 23:35:00
4:55 PM,77.0,23.0,13,30.19,10.0,SSW,6.9,-,N/A,,Clear,210,2013-08-22 23:55:00
5:15 PM,77.0,23.0,13,30.19,10.0,SW,16.1,25.3,N/A,,Clear,230,2013-08-23 00:15:00
5:35 PM,75.2,23.0,14,30.19,10.0,WSW,8.1,26.5,N/A,,Clear,250,2013-08-23 00:35:00
5:55 PM,75.2,23.0,14,30.19,10.0,SSW,10.4,25.3,N/A,,Clear,200,2013-08-23 00:55:00
6:15 PM,73.4,23.0,15,30.19,10.0,SW,15.0,31.1,N/A,,Clear,230,2013-08-23 01:15:00
6:35 PM,73.4,23.0,15,30.19,10.0,SSW,10.4,26.5,N/A,,Clear,200,2013-08-23 01:35:00
6:55 PM,73.4,23.0,15,30.19,10.0,WSW,12.7,20.7,N/A,,Clear,240,2013-08-23 01:55:00
7:15 PM,71.6,23.0,16,30.19,10.0,West,8.1,11.5,N/A,,Clear,280,2013-08-23 02:15:00
7:35 PM,69.8,21.2,16,30.19,10.0,SSW,10.4,16.1,N/A,,Clear,210,2013-08-23 02:35:00
7:55 PM,66.2,23.0,19,30.20,10.0,SW,5.8,-,N/A,,Clear,220,2013-08-23 02:55:00
8:15 PM,64.4,24.8,22,30.21,10.0,Calm,Calm,-,N/A,,Clear,0,2013-08-23 03:15:00
8:35 PM,59.0,26.6,29,30.21,10.0,North,4.6,-,N/A,,Clear,360,2013-08-23 03:35:00
8:55 PM,60.8,26.6,27,30.22,10.0,Calm,Calm,-,N/A,,Clear,0,2013-08-23 03:55:00
9:15 PM,59.0,28.4,31,30.23,10.0,NNW,5.8,-,N/A,,Clear,330,2013-08-23 04:15:00
9:35 PM,59.0,26.6,29,30.22,10.0,WNW,8.1,-,N/A,,Clear,300,2013-08-23 04:35:00
9:55 PM,59.0,26.6,29,30.22,10.0,West,15.0,24.2,N/A,,Clear,280,2013-08-23 04:55:00
10:15 PM,59.0,26.6,29,30.23,10.0,North,8.1,-,N/A,,Clear,350,2013-08-23 05:15:00
10:35 PM,55.4,26.6,33,30.22,10.0,Calm,Calm,-,N/A,,Clear,0,2013-08-23 05:35:00
10:55 PM,57.2,26.6,31,30.23,10.0,ESE,5.8,-,N/A,,Clear,120,2013-08-23 05:55:00
11:15 PM,55.4,32.0,41,30.22,10.0,SE,3.5,-,N/A,,Clear,130,2013-08-23 06:15:00
11:35 PM,55.4,32.0,41,30.22,10.0,Calm,Calm,-,N/A,,Clear,0,2013-08-23 06:35:00
11:55 PM,51.8,32.0,47,30.22,10.0,Calm,Calm,-,N/A,,Clear,0,2013-08-23 06:55:00